Regional Weather Roundup
Issued by NWS

Home | Current Version | Previous Version | Graphics & Text | Print | Product List | Glossary On
Versions: 1 2 3 4 5 6 7 8 9 10 11 12 13 14 15 16 17 18 19 20 21 22 23 24 25 26 27 28 29 30 31 32 33 34 35 36 37 38 39 40 41 42 43 44 45 46 47 48 49 50
000
ASUS43 KMKX 240821
RWRWI

WISCONSIN REGIONAL WEATHER ROUNDUP
NATIONAL WEATHER SERVICE MILWAUKEE/SULLIVAN WI
300 AM CDT FRI OCT 24 2014

NOTE: "FAIR" INDICATES FEW OR NO CLOUDS BELOW 12,000 FEET WITH NO
SIGNIFICANT WEATHER AND/OR OBSTRUCTIONS TO VISIBILITY.

WIZ001-002-006>008-014>016-023>028-240900-
NORTHWEST WISCONSIN

CITY           SKY/WX    TMP DP  RH WIND       PRES   REMARKS
SUPERIOR ARPT  FOG       36  36 100 CALM      29.93S VSB 1/2
ASHLAND        MOCLDY    45  44  97 S5        29.95F FOG
HAYWARD        CLOUDY    49  47  93 S8        29.97F FOG
SIREN          MOCLDY    49  48  98 SE5       29.95F FOG
CUMBERLAND     CLOUDY    48  46  93 S6        29.98S FOG
RICE LAKE      CLOUDY    50  48  95 S6        30.00F FOG
CHETEK         CLOUDY    49  49 100 SE8       29.99F FOG
LADYSMITH      FOG       49  48  97 S6        30.01F VSB 3/4
EAU CLAIRE     CLOUDY    49  48  97 S6        29.99F FOG
MENOMONIE      CLOUDY    51  50  97 S6        29.99F FOG
NEW RICHMOND   FOG       48  48 100 SE7       29.97S VSB 1
OSCEOLA        CLOUDY    49  49 100 SE5       29.99S FOG
$$

WIZ003>005-009-010-017-018-240900-
NORTH CENTRAL WISCONSIN

CITY           SKY/WX    TMP DP  RH WIND       PRES   REMARKS
MANITOWISH WTR FOG       45  45 100 SW7       29.99S VSB 1/2
ARBOR VITAE    FOG       46  45  97 SW3       29.99F VSB 1/2
WOODRUFF       FOG       46  45  97 SW3       29.99F VSB 1/2
RHINELANDER    FOG       44  43  96 SW7       30.01R VSB 1/4
EAGLE RIVER    FOG       44  44 100 W8        30.00R VSB 1/2
LAND O LAKES   FOG       44  44 100 CALM      30.00S VSB 3/4
PHILLIPS       FOG       46  46 100 S3        29.99F VSB 1
TOMAHAWK       FOG       44  44  98 CALM      30.01F VSB 3/4
MEDFORD        FOG       44  44 100 SW3       30.01F VSB 1/4
MERRILL        CLOUDY    45  45 100 SW5       30.02S FOG
$$

WIZ029-030-035-036-043>047-240900-
CENTRAL WISCONSIN

CITY           SKY/WX    TMP DP  RH WIND       PRES   REMARKS
WAUSAU         CLOUDY    46  46 100 W6        30.01S FOG
MOSINEE        FOG       45  45 100 CALM      30.04R VSB 1/2
MARSHFIELD     FOG       46  46 100 W5        30.03R VSB 1/4
STEVENS POINT  FOG       45  45  99 CALM      30.04R VSB 1
WAUPACA        CLOUDY    49  47  96 CALM      30.03S FOG
WAUTOMA        CLOUDY    46  46 100 W3        30.05R FOG
WISC RAPIDS    CLOUDY    47  46  97 W3        30.05R FOG
CAMP DOUGLAS   CLOUDY    47  47 100 W5        30.05R FOG
$$

WIZ011>013-019>022-031-037>040-048>050-240900-
NORTHEAST WISCONSIN

CITY           SKY/WX    TMP DP  RH WIND       PRES   REMARKS
ANTIGO         FOG       44  44 100 W5        30.02R VSB 1/2
SHAWANO        CLOUDY    48  46  93 CALM      30.02S FOG
OCONTO         CLOUDY    47  47 100 CALM      30.01S
STURGEON BAY   CLOUDY    48  45  87 W3        30.02S
GREEN BAY      CLOUDY    48  47  96 W5        30.02S FOG
MANITOWOC      CLOUDY    50  49  96 W3        30.03S FOG
APPLETON       CLOUDY    46  45  93 W5        30.03S FOG
CLINTONVILLE   CLOUDY    46  45  93 SW3       30.02S FOG
OSHKOSH        CLOUDY    48  47  96 W3        30.03R FOG
$$

WIZ032>034-041-042-053>061-240900-
SOUTHWEST WISCONSIN

CITY           SKY/WX    TMP DP  RH WIND       PRES   REMARKS
LA CROSSE      CLOUDY    51  50  96 S5        30.03F FOG
SPARTA         FOG       47  47  99 CALM      30.05S VSB 1
VIROQUA        CLOUDY    48  48 100 SW3       30.05R VSB<1/4
BOSCOBEL       CLOUDY    51  49  92 W3        30.06S FOG
PRAIRIE DU CHI FOG       50  49  96 CALM      30.05S VSB 1
PLATTEVILLE    CLOUDY    50  49  97 W8        30.06R
$$

WIZ056-057-062-063-064-067-068-240900-
SOUTH CENTRAL WISCONSIN

CITY           SKY/WX    TMP DP  RH WIND       PRES   REMARKS
REEDSBURG      CLOUDY    47  47 100 W6        30.04S FOG
BARABOO/DELLS  FOG       47  46  96 W3        30.04S VSB 1
LONE ROCK      CLOUDY    52  48  86 W7        30.06R FOG
MINERAL POINT  FOG       50  48  93 CALM      30.05R VSB 1/4
MADISON        CLOUDY    50  48  93 NW6       30.04S FOG
MIDDLETON      CLOUDY    50  50 100 NW3       30.05R
WATERTOWN      CLOUDY    49  49 100 NW5       30.03S FOG
MONROE         CLOUDY    50  50 100 W5        30.04R FOG
JANESVILLE     CLOUDY    50  48  93 CALM      30.03F FOG
$$

WIZ051-052-058>065-066-070>072-240900-
SOUTHEAST WISCONSIN

CITY           SKY/WX    TMP DP  RH WIND       PRES   REMARKS
MILWAUKEE      CLOUDY    52  48  86 W6        30.03
WAUKESHA       CLOUDY    46  46 100 W5        30.04S FOG
MILWAUKEE/TIMM CLOUDY    50  46  87 W6        30.04S FOG
RACINE         CLOUDY    52  46  80 W6        30.05
BURLINGTON     CLOUDY    47  47 100 CALM      30.04R FOG
KENOSHA        PTCLDY    47  46  97 W5        30.04S FOG
FOND DU LAC    CLOUDY    48  47  96 CALM      30.03S FOG
SHEBOYGAN      CLOUDY    50  48  93 NW5       30.03S FOG
WEST BEND      CLOUDY    50  46  87 W3        30.03S FOG
JUNEAU         CLOUDY    47  47  99 CALM      30.04S FOG
$$

LSZ147-162-240900-
LAKE SUPERIOR

STATION/POSITION TIME  TEMP    WIND        PRES    WAVE
                       AIR SEA DIR/SP/G            HT/PER
                 (UTC) (F)     (DEG/KT/KT) (MB)    (FT/S)
W MID LAKE BUOY  0750   47 46  190/  8/ 10 1014.1F   1
DEVILS ISLAND    0800   48     190/  7/  8 1014.0S
PORT WING        0700   48     190/  3/  5 1013.9
SAXON HARBOR     0700   48      CALM  /  4 1014.2S
$$

LMZ867-665-643>646-240900-
LAKE MICHIGAN

STATION/POSITION TIME  TEMP    WIND        PRES    WAVE
                       AIR SEA DIR/SP/G            HT/PER
                 (UTC) (F)     (DEG/KT/KT) (MB)    (FT/S)
CHAMBERS ISLAND  0700   49     220/  3/  7 1016.3S
N MID LAKE BUOY  0750   51 51  240/ 10/ 12 1016.3S   3/ 5
NORTHPORT PIER   0700   49     280/  2/  5 1015.9S
SISTER BAY       0728          290/  9/ 10   N/A
ALGOMA LAKESHORE 0711          290/  1/  4   N/A
KEWAUNEE LAKESHO 0800   50     250/  2/  4 1015.6R
SHEBOYGAN LAKESH 0800   50 51  230/  2/  3 1017.3R
PORT WASHINGTON  0740   52     270/  4/  6 1017.6R
ATWATER BUOY     0800   52     270/  8/ 10 1018.0R
MILWAUKEE LAKESH 0800   52     280/  9/ 12   N/A
S MID LAKE BUOY  0750   55 54  210/ 10/ 12 1017.4S   1/ 3
KENOSHA   LAKESH 0800   52     250/  3/  5 1016.9S
$$

TC  - TEMPERATURE IN CELSIUS
VSB - VISIBILITY IN STATUTE MILES
WCI - WIND CHILL INDEX
HX  - HEAT INDEX




USA.gov is the U.S. government's official web portal to all federal, state and local government web resources and services.